AirNav   Phillips 66 Aviation Fuel
 
 1076 users online  

74KY Terry Field Airport
Cunningham, Kentucky, USA

GOING TO CUNNINGHAM?


FAA INFORMATION EFFECTIVE 23 MAY 2019

Location

FAA Identifier: 74KY
Lat/Long: 36-53-55.2000N / 088-50-48.2060W
36-53.920000N / 088-50.803433W
36.8986667 / -88.8467239
(estimated)
Elevation: 370 ft. / 113 m (estimated)
Variation: 01E (1985)
From city: 3 miles SE of CUNNINGHAM, KY
Time zone: UTC -5 (UTC -6 during Standard Time)
Zip code: 42035

Airport Operations

Airport use: Private use. Permission required prior to landing
Activation date: 07/1986
Control tower: no
ARTCC: MEMPHIS CENTER
FSS: LOUISVILLE FLIGHT SERVICE STATION
Attendance: UNATNDD
Wind indicator: yes
Segmented circle: no

Airport Communications

WX ASOS at PAH (10 nm N): 118.375 (270-744-6719)
WX AWOS-3 at M25 (15 nm SE): 120.625 (270-247-2094)
WX AWOS-3 at M30 (18 nm N): 124.175 (618-524-7483)

Nearby radio navigation aids

VOR radial/distance  VOR name  Freq  Var
CNGr181/6.6CUNNINGHAM VOR/DME113.1003E
CGIr122/40.0CAPE GIRARDEAU VOR/DME112.9002W

 
NDB name  Hdg/Dist  Freq  Var  ID
CAIRO118/20.539700ECIR -.-. .. .-.
CHARLESTON085/24.720802WCHQ -.-. .... --.-

Airport Services

Runway Information

Runway 18/36

Dimensions: 2500 x 40 ft. / 762 x 12 m
Surface: turf
RUNWAY 18  RUNWAY 36
Traffic pattern: leftleft
Obstructions: nonetrees, 2000 ft. from runway

Airport Ownership and Management from official FAA records

Ownership: Privately-owned
Owner: STEVEN TERRY
644 ST ROUTE 849
CUNNINGHAM, KY 42035
Phone 270-642-2149
Manager: STEVEN TERRY
RT 1
CUNNINGHAM, KY 42035
Phone 270-559-1958

Instrument Procedures

There are no published instrument procedures at 74KY.

Some nearby airports with instrument procedures:

KPAH - Barkley Regional Airport (10 nm N)
M25 - Mayfield Graves County Airport (15 nm SE)
KCIR - Cairo Regional Airport (20 nm NW)
KCHQ - Mississippi County Airport (25 nm W)
KCEY - Kyle-Oakley Field Airport (27 nm SE)
 
Loc | Ops | Rwys | IFR | FBO | Links
Com | Nav | Svcs | Stats | Notes
Area around 74KY (Terry Field Airport)
 
Road maps at: MapQuest Bing Google
 
Aerial photo
No photo
 
Sectional chart

 
Airport distance calculator
Flying to Terry Field Airport? Find the distance to fly.

From to 74KY

Sunrise and sunset
Times for 19-Jun-2019
 Local
(UTC-5)
 Zulu
(UTC)
Morning civil twilight05:0610:06
Sunrise05:3710:37
Sunset20:1601:16
Evening civil twilight20:4701:47

Current date and time
Zulu (UTC)  20-Jun-2019 00:08:15
Local (UTC-5)  19-Jun-2019 19:08:15
 
METAR
KPAH 
11nm N 
192353Z 00000KT 10SM CLR 24/21 A2966 RMK AO2 SLP041 60076 T02390206 10317 20211 58010
KM25 
15nm SE 
192355Z AUTO 00000KT 10SM CLR 22/20 A2970 RMK AO2 PWINO
KM30 
18nm N 
192355Z AUTO 00000KT 5SM +RA CLR 24/21 A2968 RMK AO2 LTG DSNT NW 60022 T02350208 10290 20210
KCIR 
20nm NW 
192355Z AUTO 00000KT 10SM CLR 23/21 A2967 RMK AO2 LTG DSNT NW T02330211 10272 20205
TAF
KPAH 
11nm N 
192154Z 1922/2018 25010G18KT 3SM -TSRA BR BKN040CB FM192230 23005KT P6SM SCT050 BKN150 FM200100 21007KT P6SM VCTS BKN040CB FM200400 23007KT P6SM FEW060
NOTAMs
Click for the latest NOTAMs
NOTAMs are issued by the DoD/FAA and will open in a separate window not controlled by AirNav.

 

 
 

Would you like to see your business listed on this page?

 If your business provides an interesting product or service to pilots, flight crews, aircraft, or users of the Terry Field Airport, you should consider listing it here.  To start the listing process, click on the button below
 
Add a business
 

Other Pages about Terry Field Airport

Update a link
 
Copyright © AirNav, LLC. All rights reserved. Privacy Policy  Contact